Location: Ç?ral? Körfezi
(36.3984°N, 30.4829°E)
Time: 03:25:10
(UTC+00:00)

DELTA 2 R/B (1) - Pass Details

Date: 04 August 2024
Orbit: 789 x 800 km, 39.6° (Epoch: 09 September)

Event Time Altitude Azimuth Distance (km) Brightness Sun altitude
Rises 19:42:20 0° 287° (WNW) 3,300 7.6 -27.0°
Reaches altitude 10° 19:44:50 10° 287° (WNW) 2,369 6.7 -27.3°
Enters shadow 19:49:54 71° 256° (WSW) 843 3.6 -28.0°
